Location: Guayaquil
(2.1667°S, 79.9000°W)
Time: 21:59:20
(UTC-05:00)

Tiangong 1 - Visible Passes

Search period start: 20 November 2017 00:00
Search period end: 30 November 2017 00:00
Orbit: 285 x 308 km, 42.8° (Epoch: 20 November)

Date Brightness Start Highest point End Pass type
(mag) Time Alt. Az. Time Alt. Az. Time Alt. Az.
21 Nov 3.3 04:27:30 16° ENE 04:27:30 16° ENE 04:28:38 10° E visible
22 Nov 2.3 04:34:37 33° SE 04:34:37 33° SE 04:36:11 10° SE visible
23 Nov 3.0 04:41:34 16° S 04:41:34 16° S 04:42:31 10° S visible
